Location: *
(43.0409°N, 0.1694°E)
Time: 13:28:05
(UTC+00:00)

COSMOS 2428 - Pass Details

Date: 03 October 2023
Orbit: 843 x 858 km, 70.9° (Epoch: 01 December)

Event Time Altitude Azimuth Distance (km) Brightness Sun altitude
Rises 02:53:25 0° 340° (NNW) 3,416 6.0 -33.4°
Reaches altitude 10° 02:56:03 10° 349° (NNW) 2,480 5.3 -33.0°
Maximum altitude 03:01:21 39° 57° (ENE) 1,257 4.0 -32.1°
Drops below altitude 10° 03:06:39 10° 126° (SE) 2,476 5.4 -31.3°
Sets 03:09:16 0° 134° (SE) 3,410 6.1 -30.8°
